Flag for Canada Weather past 2 weeks in Welland, Ontario, Canada

Now
50 °F

Cool.


Feels Like: 46 °F
Forecast: 38 / 62 °F
Wind: 12 mph from Northeast

Location: Port Colborne Airport

Current Time: Apr 19, 2015 at 12:07:46 AM

Latest Report: Apr 18, 2015 at 11:00 PM


Visibility: N/A

Pressure: 30.19 "Hg

Humidity: 42%

Dew point: 28 °F

Location of WellandLocation

Historic Weather in Welland — Graph

°F

Welland temperature yesterday

Maximum temperature yesterday: 63 °F (at 3:00 PM)
Minimum temperature yesterday: 35 °F (at 7:00 AM)
Average temperature yesterday: 45 °F

Past Weeks' High & Low Weather Summary

 TemperatureHumidityPressure
High63 °F (Apr 18, 3:00 PM)100% (Apr 17, 7:00 PM)30.41 "Hg (Apr 17, 7:00 PM)
Low30 °F (Apr 5, 9:00 AM)13% (Apr 18, 4:00 PM)29.51 "Hg (Apr 10, 10:00 AM)
Average40 °F74%30.11 "Hg
* Reported Apr 3 10:00 PM — Apr 18 10:00 PM, Welland, Weather by CustomWeather, © 2015

Note: Actual official high and low records may vary slightly from our data, if they occured in-between our weather recording intervals... More about our weather records

Advertising

Welland weather history for previous 24 hours

 ConditionsComfort  
Time TempWeatherWind HumidityBarometerVisibility
10:00 PM
Sat, Apr 18
54 °FCool.8 mph27%30.18 "HgN/A
9:00 PM54 °FCool.8 mph26%30.16 "HgN/A
8:00 PM59 °FRefreshingly cool.10 mph28%30.13 "HgN/A
7:00 PM60 °FRefreshingly cool.10 mph25%30.14 "HgN/A
6:00 PM61 °FRefreshingly cool.9 mph22%30.12 "HgN/A
5:00 PM62 °FRefreshingly cool.18 mph14%30.09 "HgN/A
4:00 PM62 °FRefreshingly cool.20 mph13%30.07 "HgN/A
3:00 PM63 °FMild.17 mphN/AN/AN/A
2:00 PM41 °FQuite cool.6 mph82%30.06 "HgN/A
1:00 PM38 °FChilly.9 mph89%30.04 "HgN/A
12:00 PM37 °FChilly.12 mph90%30.04 "HgN/A
11:00 AM38 °FChilly.9 mph90%30.03 "HgN/A
10:00 AM40 °FChilly.13 mph87%30.02 "HgN/A
9:00 AM45 °FQuite cool.16 mph93%30.02 "HgN/A
8:00 AM38 °FChilly.12 mph88%30.00 "HgN/A
7:00 AM35 °FChilly.7 mph94%30.01 "HgN/A
6:00 AM37 °FChilly.6 mph94%30.01 "HgN/A
5:00 AM38 °FChilly.3 mph93%30.01 "HgN/A
4:00 AM36 °FChilly.3 mph94%30.00 "HgN/A
3:00 AM38 °FChilly.3 mph93%30.01 "HgN/A
2:00 AM37 °FChilly.5 mph93%30.01 "HgN/A
1:00 AM37 °FChilly.5 mph93%30.03 "HgN/A
12:00 AM38 °FChilly.6 mph93%30.04 "HgN/A
Weather by CustomWeather, © 2015

See weather overviewHow to use our weather pages